User: anonymous   Login
Location: Lawrence Hall of Science
(37.8785°N, 122.2415°W)
Time: 16:34:28
(UTC-07:00)
Language:

Cosmos 2098 Rocket - Orbit

View from above orbital plane
View from above orbital plane
View from above satellite
View from above satellite

Ground track
Ground track

The orbit data is extracted from the following two-line orbital elements,

1 20775U 90078B   17112.90794482 +.00004224 +00000-0 +20994-3 0  9999
2 20775 082.9267 093.4914 0590442 152.3493 211.0468 14.30335314340879
Epoch (UTC): 22 April 2017 21:47:26
Eccentricity: 0.0590442
inclination: 82.9267°
perigee height: 367 km
apogee height: 1214 km
right ascension of ascending node: 93.4914°
argument of perigee: 152.3493°
revolutions per day: 14.30335314
mean anomaly at epoch: 211.0468°
orbit number at epoch: 34087

The dashed part of the orbit path shows where the satellite is in the earth's shadow,  

DLR